This is the latest recevied weather packets stored in our database for station/object N3WMC. If no packets are shown the sender has not sent any weather packets the latest 10 day(s).
| Time | Temp. | Humidity | Pressure | Rain* | Wind** | Luminosity | Snow |
|---|---|---|---|---|---|---|---|
| 1777490099 | 16.11° C | 95% | 1006.4 hPa | 3.05 mm | - | 69 W/m² | - |
| 1777489796 | 16.11° C | 96% | 1006.3 hPa | 3.05 mm | - | 114 W/m² | - |
| 1777489494 | 16.11° C | 96% | 1006.3 hPa | 3.05 mm | - | 120 W/m² | - |
| 1777489191 | 16.11° C | 96% | 1006.5 hPa | 3.05 mm | - | 90 W/m² | - |
| 1777488887 | 16.11° C | 96% | 1006.2 hPa | 9.65 mm | - | 61 W/m² | - |
| 1777488584 | 16.11° C | 96% | 1006.2 hPa | 8.89 mm | - | 38 W/m² | - |
| 1777488282 | 16.11° C | 95% | 1006.5 hPa | 3.05 mm | - | 32 W/m² | - |
| 1777487975 | 16.11° C | 95% | 1006.3 hPa | 3.05 mm | - | 47 W/m² | - |
| 1777487672 | 16.11° C | 94% | 1006 hPa | 1.27 mm | - | 34 W/m² | - |
| 1777487369 | 16.11° C | 95% | 1005.9 hPa | 3.05 mm | - | 35 W/m² | - |
| 1777487067 | 16.11° C | 94% | 1005.7 hPa | 16.76 mm | - | 31 W/m² | - |
| 1777486762 | 16.11° C | 94% | 1006.3 hPa | 15.49 mm | - | 43 W/m² | - |
| 1777486461 | 16.11° C | 93% | 1006.4 hPa | 3.05 mm | - | 71 W/m² | - |
| 1777486158 | 16.67° C | 92% | 1006.6 hPa | 4.32 mm | - | 29 W/m² | - |
| 1777485854 | 16.67° C | 92% | 1006.5 hPa | 3.05 mm | - | 64 W/m² | - |
| 1777485549 | 16.67° C | 92% | 1006.5 hPa | 0 mm | - | 77 W/m² | - |
| 1777485246 | 16.67° C | 91% | 1006.6 hPa | 0 mm | - | 51 W/m² | - |
| 1777484942 | 17.22° C | 90% | 1006.6 hPa | 0 mm | - | 79 W/m² | - |
| 1777484639 | 17.22° C | 90% | 1006.8 hPa | 0 mm | - | 79 W/m² | - |
| 1777484336 | 17.22° C | 90% | 1006.9 hPa | 0 mm | - | 95 W/m² | - |
| 1777484031 | 17.22° C | 90% | 1006.9 hPa | 0 mm | - | 197 W/m² | - |
| 1777483728 | 17.22° C | 90% | 1007.1 hPa | 0 mm | - | 156 W/m² | - |
| 1777483424 | 16.67° C | 90% | 1007.2 hPa | 0 mm | - | 130 W/m² | - |
| 1777483119 | 16.67° C | 91% | 1007.4 hPa | 0 mm | - | 181 W/m² | - |
| 1777482817 | 16.67° C | 92% | 1007.6 hPa | 0 mm | - | 140 W/m² | - |
* Rain latest hour (hover to see other rain measurements)
** Current wind speed in m/s (hover to see current wind gust speed)